Hourly Weather Algiers

Today, 28 September, Monday

Time Temperature Precipitation Wind Pressure Humidity
00:00 +20°C° 0 mm 1 mps 748 mmHg 69%
01:00 +20°C° 0 mm 1 mps 748 mmHg 69%
02:00 +20°C° 0 mm 1 mps 748 mmHg 70%
03:00 +17°C° 0 mm 0 mps 747 mmHg 71%
04:00 +19°C° 0 mm 1 mps 748 mmHg 70%
05:00 +19°C° 0 mm 1 mps 748 mmHg 69%
06:00 +19°C° 0 mm 1 mps 749 mmHg 68%
07:00 +21°C° 0 mm 1 mps 749 mmHg 60%
08:00 +22°C° 0 mm 1 mps 749 mmHg 51%
09:00 +24°C° 0 mm 1 mps 749 mmHg 43%
10:00 +25°C° 0 mm 1 mps 749 mmHg 41%
11:00 +25°C° 0 mm 2 mps 750 mmHg 40%
12:00 +26°C° 0 mm 2 mps 750 mmHg 39%
13:00 +26°C° 0 mm 2 mps 749 mmHg 40%
14:00 +26°C° 0 mm 2 mps 749 mmHg 42%
15:00 +25°C° 0 mm 2 mps 749 mmHg 44%
16:00 +25°C° 0 mm 2 mps 749 mmHg 47%
17:00 +24°C° 0 mm 2 mps 749 mmHg 50%
18:00 +23°C° 0 mm 2 mps 749 mmHg 52%
19:00 +23°C° 0 mm 2 mps 750 mmHg 53%
20:00 +23°C° 0 mm 2 mps 750 mmHg 53%
21:00 +23°C° 0 mm 2 mps 750 mmHg 54%
22:00 +21°C° 0 mm 2 mps 750 mmHg 53%
23:00 +21°C° 0 mm 2 mps 750 mmHg 53%

Tomorrow, 29 September, Tuesday

Time Temperature Precipitation Wind Pressure Humidity
00:00 +21°C° 0 mm 2 mps 750 mmHg 52%
01:00 +21°C° 0 mm 2 mps 750 mmHg 51%
02:00 +21°C° 0 mm 2 mps 749 mmHg 50%
03:00 +21°C° 0 mm 2 mps 749 mmHg 50%
04:00 +21°C° 0 mm 3 mps 749 mmHg 49%
05:00 +21°C° 0 mm 3 mps 749 mmHg 47%
06:00 +21°C° 0 mm 3 mps 749 mmHg 46%
07:00 +22°C° 0 mm 3 mps 749 mmHg 42%
08:00 +25°C° 0 mm 4 mps 749 mmHg 38%
09:00 +27°C° 0 mm 4 mps 750 mmHg 33%
10:00 +28°C° 0 mm 4 mps 749 mmHg 34%
11:00 +29°C° 0 mm 5 mps 749 mmHg 35%
12:00 +30°C° 0 mm 5 mps 749 mmHg 36%
13:00 +29°C° 0 mm 5 mps 749 mmHg 39%
14:00 +29°C° 0 mm 6 mps 748 mmHg 42%
15:00 +29°C° 0 mm 6 mps 747 mmHg 45%
16:00 +28°C° 0 mm 6 mps 747 mmHg 50%
17:00 +26°C° 0 mm 5 mps 747 mmHg 54%
18:00 +25°C° 0 mm 5 mps 747 mmHg 58%
19:00 +25°C° 0 mm 4 mps 748 mmHg 59%
20:00 +25°C° 0 mm 4 mps 748 mmHg 60%
21:00 +25°C° 0 mm 3 mps 748 mmHg 61%
22:00 +25°C° 0 mm 3 mps 748 mmHg 63%
23:00 +24°C° 0 mm 3 mps 748 mmHg 65%

Day after tomorrow, 30 September, Wednesday

Time Temperature Precipitation Wind Pressure Humidity
00:00 +24°C° 0 mm 3 mps 748 mmHg 68%
01:00 +24°C° 0 mm 2 mps 748 mmHg 68%
02:00 +24°C° 0 mm 2 mps 747 mmHg 68%
03:00 +23°C° 0 mm 2 mps 747 mmHg 68%
04:00 +23°C° 0 mm 2 mps 747 mmHg 69%
05:00 +23°C° 0 mm 2 mps 747 mmHg 70%
06:00 +23°C° 0 mm 2 mps 748 mmHg 72%
07:00 +24°C° 0 mm 2 mps 748 mmHg 68%
08:00 +25°C° 0 mm 2 mps 748 mmHg 64%
09:00 +26°C° 0 mm 3 mps 748 mmHg 60%
10:00 +27°C° 0 mm 3 mps 748 mmHg 59%
11:00 +28°C° 0 mm 4 mps 748 mmHg 58%
12:00 +28°C° 0 mm 4 mps 747 mmHg 58%
13:00 +28°C° 0 mm 4 mps 747 mmHg 60%
14:00 +28°C° 0 mm 4 mps 746 mmHg 63%
15:00 +27°C° 0 mm 4 mps 746 mmHg 65%
16:00 +27°C° 0 mm 4 mps 746 mmHg 69%
17:00 +26°C° 0 mm 4 mps 746 mmHg 73%
18:00 +25°C° 0 mm 4 mps 746 mmHg 76%
19:00 +25°C° 0 mm 4 mps 746 mmHg 76%
20:00 +25°C° 0 mm 3 mps 746 mmHg 77%
21:00 +24°C° 0 mm 3 mps 747 mmHg 77%
22:00 +24°C° 0 mm 3 mps 746 mmHg 77%
23:00 +24°C° 0 mm 2 mps 746 mmHg 78%

1 October, Thursday

Time Temperature Precipitation Wind Pressure Humidity
00:00 +24°C° 0 mm 1 mps 746 mmHg 78%
01:00 +24°C° 0 mm 1 mps 745 mmHg 78%
02:00 +24°C° 0 mm 2 mps 745 mmHg 78%
03:00 +24°C° 0 mm 2 mps 745 mmHg 78%
04:00 +23°C° 0 mm 2 mps 745 mmHg 80%
05:00 +22°C° 0 mm 3 mps 745 mmHg 82%
06:00 +22°C° 0 mm 4 mps 745 mmHg 84%
07:00 +24°C° 0 mm 3 mps 745 mmHg 79%
08:00 +25°C° 0 mm 3 mps 745 mmHg 73%
09:00 +26°C° 0 mm 3 mps 745 mmHg 68%
10:00 +27°C° 0 mm 3 mps 745 mmHg 65%
11:00 +27°C° 0 mm 4 mps 745 mmHg 61%
12:00 +28°C° 0 mm 4 mps 745 mmHg 58%
13:00 +28°C° 0 mm 5 mps 745 mmHg 59%
14:00 +28°C° 0 mm 5 mps 744 mmHg 59%
15:00 +28°C° 0 mm 5 mps 744 mmHg 59%
16:00 +27°C° 0 mm 5 mps 744 mmHg 62%
17:00 +26°C° 0 mm 5 mps 744 mmHg 65%
18:00 +25°C° 0 mm 5 mps 744 mmHg 68%
19:00 +25°C° 0 mm 4 mps 745 mmHg 66%
20:00 +25°C° 0 mm 4 mps 745 mmHg 65%
21:00 +25°C° 0 mm 3 mps 745 mmHg 63%
22:00 +24°C° 0 mm 3 mps 745 mmHg 58%
23:00 +24°C° 0 mm 3 mps 745 mmHg 53%

2 October, Friday

Time Temperature Precipitation Wind Pressure Humidity
00:00 +24°C° 0 mm 2 mps 744 mmHg 49%
01:00 +24°C° 0 mm 2 mps 744 mmHg 48%
02:00 +24°C° 0 mm 2 mps 743 mmHg 48%
03:00 +23°C° 0 mm 1 mps 743 mmHg 47%
04:00 +23°C° 0 mm 1 mps 743 mmHg 45%
05:00 +23°C° 0 mm 2 mps 743 mmHg 43%
06:00 +23°C° 0 mm 2 mps 743 mmHg 41%
07:00 +24°C° 0 mm 2 mps 743 mmHg 38%
08:00 +26°C° 0 mm 2 mps 744 mmHg 34%
09:00 +28°C° 0 mm 2 mps 744 mmHg 31%
10:00 +28°C° 0 mm 3 mps 743 mmHg 31%
11:00 +29°C° 0 mm 3 mps 743 mmHg 30%
12:00 +30°C° 0 mm 4 mps 743 mmHg 30%
13:00 +29°C° 0 mm 5 mps 742 mmHg 35%
14:00 +29°C° 0 mm 5 mps 742 mmHg 41%
15:00 +28°C° 0 mm 6 mps 741 mmHg 46%
16:00 +27°C° 0 mm 5 mps 741 mmHg 52%
17:00 +26°C° 0 mm 5 mps 741 mmHg 57%
18:00 +25°C° 0 mm 4 mps 740 mmHg 63%
19:00 +25°C° 0 mm 4 mps 740 mmHg 61%
20:00 +25°C° 0 mm 4 mps 740 mmHg 60%
21:00 +25°C° 0 mm 4 mps 740 mmHg 58%
22:00 +25°C° 0 mm 3 mps 740 mmHg 55%
23:00 +25°C° 0 mm 3 mps 740 mmHg 52%

3 October, Saturday

Time Temperature Precipitation Wind Pressure Humidity
00:00 +26°C° 0 mm 3 mps 740 mmHg 49%
01:00 +26°C° 0 mm 4 mps 740 mmHg 47%
02:00 +25°C° 0 mm 5 mps 739 mmHg 46%
03:00 +24°C° 0 mm 6 mps 739 mmHg 45%
04:00 +24°C° 0 mm 6 mps 739 mmHg 47%
05:00 +23°C° 0 mm 7 mps 739 mmHg 50%
06:00 +23°C° 0 mm 7 mps 740 mmHg 53%
07:00 +24°C° 0 mm 7 mps 740 mmHg 52%
08:00 +24°C° 0 mm 8 mps 740 mmHg 50%
09:00 +26°C° 0 mm 8 mps 740 mmHg 49%
10:00 +27°C° 0 mm 9 mps 740 mmHg 47%
11:00 +27°C° 0 mm 9 mps 739 mmHg 45%
12:00 +28°C° 0 mm 9 mps 739 mmHg 44%
13:00 +28°C° 0 mm 10 mps 739 mmHg 47%
14:00 +28°C° 0 mm 11 mps 739 mmHg 49%
15:00 +27°C° 0 mm 12 mps 739 mmHg 52%
16:00 +27°C° 0 mm 11 mps 739 mmHg 55%
17:00 +26°C° 0 mm 10 mps 739 mmHg 57%
18:00 +24°C° 0 mm 10 mps 739 mmHg 59%
19:00 +24°C° 0 mm 9 mps 739 mmHg 58%
20:00 +24°C° 0 mm 8 mps 740 mmHg 56%
21:00 +24°C° 0 mm 6 mps 740 mmHg 54%
22:00 +24°C° 0.1 mm 7 mps 740 mmHg 57%
23:00 +23°C° 0.1 mm 8 mps 740 mmHg 60%
Show more